{"data":{"norad_id":58854,"intl_designator":"2024-019B","name":"STARLINK-31158","alt_names":[],"object_type":"PAYLOAD","status":"ACTIVE","operator":null,"country":"US","launch_date":"2024-01-29","launch_site_code":"AFETR","launch_vehicle":null,"mission":null,"orbit_class":"UNKNOWN","rcs_meters":null,"size_class":null,"mass_kg":null,"dimensions":null,"purposes":["comms"],"wikipedia_slug":null,"has_3d_model":false,"image_url":null,"decayed_at":null,"tle_current":{"epoch":"2026-05-25T02:58:56.980704Z","epoch_age_seconds":75011,"freshness":"FRESH","line1":"1 58854U 24019B   26145.12427061  .00000249  00000+0  18570-4 0  9996","line2":"2 58854  42.9996 177.1228 0001215 258.1091 101.9624 15.27575194130771","mean_motion":15.27575194,"eccentricity":0.0001215,"inclination_deg":42.9996,"raan_deg":177.1228,"arg_perigee_deg":258.1091,"mean_anomaly_deg":101.9624,"bstar":1.857e-5,"rev_number":13077,"period_min":94.267045292174,"perigee_km":482.22985111117,"apogee_km":483.8971228295,"semimajor_km":6861.2004869703,"source":"CELESTRAK","updated_at":"2026-05-25T13:38:18.757488Z"}}}